sat.trackr.live / text

‹ back to catalog

STARLINK-37444

NORAD 68817 · 2026-089R

PAYLOAD ACTIVE UNKNOWN

§ Identity

Operator
Country
US
Launch date
2026-04-23
Launch site
AFWTR
Launch vehicle
Mass (kg)
RCS (m²)

Purposes: comms

External: N2YO · Heavens-Above · Gunter

§ Orbital elements

Epoch: 2026-05-25T02:37:04.895616Z

Period
91.42 min
Inclination
97.2847°
Eccentricity
0.0001812
Mean motion
15.75183896 rev/d
Perigee alt
342.9 km
Apogee alt
345.3 km
Semi-major
6,722.2 km
B*
1.2351e-3
RAAN
351.7676°
Arg perigee
80.4104°
Mean anomaly
279.7366°
Rev number
506

§ Raw data

STARLINK-374441 68817U 26089R   26145.10908444  .00188158  00000+0  12351-2 0  99972 68817  97.2847 351.7676 0001812  80.4104 279.7366 15.75183896  5067

JSON: /api/v1/satellites/68817 · /tle

For live sub-satellite position, see the globe view (requires WebGL).

§ Visibility from observer

Set your observer location to see the next 7 days of passes ≥ 10°. The values pass through the URL so the page stays shareable.

No JS? Fill the form by hand. The geolocation button needs JavaScript.